www.pogodaiklimat.ru

Погода и климат >> Архив погоды >> Мексика >> Tulancingo


ПОГОДА в Tulancingo

  • Прогноз погоды в Tulancingo
  • Монитор погоды в Tulancingo
  • Климат города

АРХИВ ПОГОДЫ в Tulancingo

Время (UTC), дата Ветер
(напр.,м/с)
 
Видим.   Явления Облачность Т
(С)
Тd
(С)
f
(%)
Тe
(С)
Тes
(С)
Комфортность P
(гПа)
Po
(гПа)
Тmin
(С)
Tmax
(С)
R
(мм)
R24
(мм)
S
(см)
12 15.11 штиль 0 15 км {туман} ясно +7.8 +6.1 89 +7 +7 1020.7 786.4 +7.5 +18.8
15 15.11 СЗ 1 20 км мгла ясно +12.2 +7.8 74 +12 +17 1022.9 787.6
18 15.11 СЗ 1 20 км 1/1 1500 м
[Cu hum]
+20.6 +6.7 40 +23 +36 комфорт 1019.6 786.7 +7.4 +21.2
21 15.11 В 3 20 км мгла 1/1 800 м
[Cu hum]
+23.6 +9.2 40 +24 +30 комфорт 1013.9 785.0
00 16.11 В 3 20 км мгла 1/1 600 м
[Cu med, cong]
+17.0 +9.8 63 +17 +17 1012.1 785.7 +7.4 +24.0
03 16.11 СВ 1 18 км мгла ясно +12.2 +10.6 90 +12 +12 1013.8 787.7
06 16.11 В 1 18 км мгла ясно +8.0 +6.6 91 +7 +7 1016.8 788.4 +7.4 +24.0
09 16.11 В 1 18 км мгла ясно +6.4 +9.4 100 +5 +5 1019.3 787.5
12 16.11 СВ 1 18 км мгла ясно +5.4 +1.8 78 +4 +4 1022.7 787.7 +4.2 +24.0
15 16.11 ЮВ 1 20 км мгла ясно +10.9 +3.1 59 +11 +15 1025.6 789.0
18 16.11 СЗ 1 20 км мгла 1/1 1020 м
[Cu hum]
+20.2 +8.2 46 +22 +36 комфорт 1022.7 788.3 +4.2 +20.6
21 16.11 ЮВ 3 20 км 1/1 800 м
[Cu hum]
+21.4 +10.5 50 +23 +29 комфорт 1016.6 786.2
00 17.11 В 2 20 км мгла 1/1 300 м
[Sc diur, vesp]
+14.8 +9.8 72 +15 +15 1015.4 787.1 +4.2 +23.0
03 17.11 штиль 0 15 км {туман} ясно +11.4 +8.8 84 +11 +11 1016.6 788.9
06 17.11 штиль 0 15 км {туман} ясно +8.0 +5.9 87 +7 +7 1018.7 788.9 +4.2 +23.0
09 17.11 штиль 0 15 км {туман} ясно +6.0 +4.2 88 +5 +5 1020.9 788.0
12 17.11 штиль 0 18 км {туман} ясно +4.4 +1.7 83 +3 +3 1023.3 787.8 +4.0 +23.0
15 17.11 штиль 0 20 км ясно +12.0 +3.0 54 +12 +17 1025.8 788.8
18 17.11 СВ 2 20 км ясно +21.6 +5.1 34 +22 +35 комфорт 1022.0 787.8 +4.0 +22.5
00 18.11 СВ 1 20 км ясно +17.4 +9.6 60 +18 +18 1011.8 785.7 +4.0 +24.6
03 18.11 СВ 1 18 км мгла ясно +12.8 +10.6 86 +13 +13 1012.8 787.5
06 18.11 В 1 18 км мгла ясно +8.6 +6.5 87 +8 +8 1014.6 787.2 +4.0 +24.6
09 18.11 СВ 1 18 км мгла ясно +7.8 +2.0 67 +7 +7 1016.2 785.9
12 18.11 В 1 18 км мгла ясно +7.6 +0.8 62 +7 +7 1018.9 785.6 +7.3
15 18.11 СВ 1 18 км мгла ясно +13.6 +4.6 54 +14 +18 1021.2 786.7
18 18.11 СЗ 2 20 км ясно +22.6 +1.7 25 +22 +35 комфорт 1017.7 786.0 +6.5 +23.6
21 18.11 В 2 20 км ясно +25.6 +5.2 27 +25 +33 комфорт 1011.6 784.2
00 19.11 СВ 2 20 км ясно +19.0 +6.6 44 +20 +20 1009.7 785.1 +6.5 +26.4
06 19.11 штиль 0 18 км ясно +8.8 +0.7 57 +8 +8 1014.9 787.8 +6.5 +26.4
09 19.11 ЮВ 2 10 км мгла 3/3 600 м
[Sc]
+7.8 +1.7 65 +6 +6 1019.0 788.1
12 19.11 штиль 0 10 км мгла 6/6 800 м
[Sc]
+9.0 +6.2 83 +8 +8 1022.2 788.2 +7.5 +26.4
15 19.11 штиль 0 3000 м дымка 10/10 300 м
[Frnb]
+9.6 +8.9 95 +9 +9 1024.5 789.1 0.7
18 19.11 СВ 3 20 км 6/5 300 м
[Sc diur, vesp Cc]
+14.6 +10.2 75 +14 +19 1023.3 788.8 2
21 19.11 СВ 3 5000 м туман 9/8 450 м
[Frnb As op]
+14.0 +10.3 78 +13 +14 1019.3 786.8
00 20.11 СЗ 1 5000 м туман 9/9 300 м
[Frnb]
+12.1 +9.4 84 +12 +12 1019.3 787.5 +7.5 +16.3
03 20.11 В 1 15 км {туман} 4/3 600 м
[St Ac cuf]
+10.3 +7.8 84 +10 +10 1020.3 788.6
06 20.11 В 1 10 км дымка {туман} 10/10 450 м
[St]
+8.2 +7.4 95 +7 +7 1020.8 788.3 +7.5 +16.3
09 20.11 ЮВ 1 10 км дымка {туман} 10/10 450 м
[St]
+8.2 +7.2 93 +7 +7 1020.7 787.1
12 20.11 штиль 0 18 км {туман} ясно +6.8 +5.4 91 +6 +6 1021.0 786.3 +6.5 +16.3
15 20.11 СЗ 2 20 км 1/1 300 м
[St]
+12.6 +6.6 67 +12 +15 1022.8 787.5
18 20.11 СЗ 3 18 км мгла 1/1 1020 м
[Cu hum]
+21.6 +10.2 48 +23 +33 комфорт 1019.0 786.4 +6.5 +22.0
21 20.11 СВ 3 20 км 1/1 800 м
[Cu med, cong]
+22.2 +6.0 35 +23 +28 комфорт 1013.7 784.8
00 21.11 СВ 2 20 км 1/0
[Ci]
+18.0 +6.1 46 +19 +19 1010.6 784.6 +6.5 +23.0
03 21.11 СВ 1 18 км мгла ясно +12.8 +7.8 72 +13 +13 1011.2 785.9
06 21.11 СВ 1 18 км мгла ясно +9.4 +5.5 77 +9 +9 1013.1 785.8 +6.5 +23.0
09 21.11 В 1 18 км мгла 1/0 2000 м
[Ac cuf]
+9.4 +4.3 70 +9 +9 1014.3 784.5
12 21.11 СВ 1 18 км мгла ясно +9.2 +3.2 66 +9 +9 1016.5 784.3 +8.7 +23.0
15 21.11 ЮВ 1 20 км ясно +15.4 +4.4 48 +16 +20 1018.1 785.1
18 21.11 СВ 1 20 км 1/1 800 м
[Cu hum]
+23.0 +7.1 36 +24 +37 комфорт 1014.7 784.5 +8.7 +23.6
21 21.11 СЗ 3 18 км мгла 3/1 1500 м
[Cu hum Ci fib]
+23.8 +7.0 34 +24 +29 комфорт 1009.4 782.9
00 22.11 СЗ 1 20 км мгла 1/0
[Ci fib]
+20.2 +7.8 45 +22 +22 комфорт 1006.8 783.0 +8.7 +24.8
03 22.11 штиль 0 15 км {туман} ясно +13.6 +8.1 69 +13 +13 1008.2 784.7
06 22.11 штиль 0 15 км {туман} ясно +11.2 +6.8 74 +11 +11 1010.3 784.7 +8.7 +24.8

 

Местоположение метеостанции Tulancingo (Мексика): широта 20.08 долгота -98.37 высота над уровнем моря 2181 м.

В архиве по умолчанию представлена погода в Tulancingo за последнюю неделю. Архивные данные за месяц целиком и за предыдущие месяцы, начиная с января 2011 года, Вы можете получить, выбрав интересующий диапазон дат из раскрывающегося списка и нажав кнопку "Ввод!".

Внимание! Время в таблицах - всемирное. Для получения местного времени необходимо прибавить поправку, которая в Tulancingo равна -6 ч.

Смотрите также архив погоды в соседних городах и на ближайших метеорологических станциях:

Погода в Pachuca (Мексика) (40 км)
Погода в Tlaxcala (Мексика) (85 км)
Погода в Tlaxcala Airport (Мексика) (87 км)
Погода в Mexico City (Мексика) (114 км)
Погода в Puebla (Мексика) (117 км)
Погода в Institute of Geography (Мексика) (120 км)
Погода в Tuxpan (Мексика) (140 км)
Погода в Matlapa (Мексика) (145 км)
Погода в Cuernavaca (Мексика) (161 км)
Погода в Toluca (Мексика) (164 км)

Пояснения к столбцам:

Ветер - указаны скорость ветра в м/с - средняя за 10 мин, порывы в срок и между сроками (в фигурных скобках) и направление, откуда дует ветер: С - северный, СВ - северо-восточный, В - восточный, ЮВ - юго-восточный, Ю - южный, ЮЗ - юго-западный, З - западный, СЗ - северо-западный.
Видимость - горизонтальная дальность видимости в метрах или километрах. При видимости от 1 до 10 км при отсутствии осадков обычно наблюдается дымка, при ухудшении видимости до 1 км и менее - туман. В сухую погоду видимость может ухудшаться дымом, пылью или мглою.
Явления - указаны атмосферные явления, наблюдавшиеся в срок или в последний час перед сроком; фигурными скобками обозначены явления, наблюдавшиеся между сроками (за 1-3 часа до срока); квадратными скобками обозначены град или гололедные отложения с указанием их диаметра в мм.
Облачность - указаны через наклонную черту общая и нижняя облачность в баллах и высота нижней границы облаков в метрах; квадратными скобками обозначены формы облаков: Ci - перистые, Cs - перисто-слоистые, Cc - перисто-кучевые, Ac - высококучевые, As - высокослоистые, Sc - слоисто-кучевые, Ns - слоисто-дождевые, Cu - кучевые, Cb - кучево-дождевые. Подробнее классификацию облаков см. в Атласе облаков (PDF).
T - Температура воздуха - температура, измеренная на высоте 2 м над землей.
Td - Температура точки росы - температура, при понижении до которой содержащийся в воздухе водяной пар достигнет насыщения.
f - Относительная влажность воздуха - влажноcть воздуха, измеренная на высоте 2 м над землей.
Te - Эффективная температура - температура, которую ощущает одетый по сезону человек в тени. Характеристика душности погоды. При расчете учитывается влияние влажности воздуха и скорости ветра на теплоощущения человека.
Tes - Эффективная температура на солнце - температура, которую ощущает человек, с поправкой на солнечный нагрев. Характеристика знойности погоды. Зависит от высоты солнца над горизонтом, облачности и скорости ветра. Ночью, в пасмурную погоду, а также при ветре 12 м/с и более поправка равна нулю.
P - Атмосферное давление - приведенное к уровню моря атмосферное давление.
Po - Атмосферное давление - измеренное на уровне метеостанции атмосферное давление.
Tmin - Минимальная температура - минимум температуры воздуха на высоте 2 м над землей.
Tmax - Максимальная температура - максимум температуры воздуха на высоте 2 м над землей.
R - Количество осадков - Количество выпавших осадков за период времени, мм. При наведении курсора мыши на число - период времени, за который выпало указанное количество осадков.
R24 - Количество осадков - Количество выпавших осадков за 24 часа, мм.
S - Снежный покров - Высота снежного покрова, см. При наведении курсора мыши на число - состояние снежного покрова и степень покрытия местности в баллах.